Year,Month,Day,Hour,Minute,Value (Times are PST for temperature in C)
2021,06,25,00,00,19.40
2021,06,25,00,01,19.30
2021,06,25,00,02,19.30
2021,06,25,00,03,19.30
2021,06,25,00,04,19.30
2021,06,25,00,05,19.30
2021,06,25,00,06,19.30
2021,06,25,00,07,19.30
2021,06,25,00,08,19.30
2021,06,25,00,09,19.30
2021,06,25,00,10,19.30
2021,06,25,00,11,19.30
2021,06,25,00,12,19.30
2021,06,25,00,13,19.30
2021,06,25,00,14,19.30
2021,06,25,00,15,19.30
2021,06,25,00,16,19.30
2021,06,25,00,17,19.20
2021,06,25,00,18,19.20
2021,06,25,00,19,19.20
2021,06,25,00,20,19.20
2021,06,25,00,21,19.20
2021,06,25,00,22,19.20
2021,06,25,00,23,19.20
2021,06,25,00,24,19.20
2021,06,25,00,25,19.10
2021,06,25,00,26,19.10
2021,06,25,00,27,19.10
2021,06,25,00,28,19.10
2021,06,25,00,29,19.10
2021,06,25,00,30,19.10
2021,06,25,00,31,19.00
2021,06,25,00,32,19.00
2021,06,25,00,33,19.00
2021,06,25,00,34,19.00
2021,06,25,00,35,19.00
2021,06,25,00,36,19.00
2021,06,25,00,37,18.90
2021,06,25,00,38,18.90
2021,06,25,00,39,18.90
2021,06,25,00,40,18.90
2021,06,25,00,41,18.90
2021,06,25,00,42,18.90
2021,06,25,00,43,18.90
2021,06,25,00,44,18.80
2021,06,25,00,45,18.80
2021,06,25,00,46,18.80
2021,06,25,00,47,18.90
2021,06,25,00,48,18.90
2021,06,25,00,49,18.90
2021,06,25,00,50,18.90
2021,06,25,00,51,18.90
2021,06,25,00,52,18.90
2021,06,25,00,53,18.90
2021,06,25,00,54,18.90
2021,06,25,00,55,18.90
2021,06,25,00,56,18.90
2021,06,25,00,57,18.80
2021,06,25,00,58,18.80
2021,06,25,00,59,18.80
2021,06,25,01,00,18.80
2021,06,25,01,01,18.80
2021,06,25,01,02,18.80
2021,06,25,01,03,18.80
2021,06,25,01,04,18.80
2021,06,25,01,05,18.80
2021,06,25,01,06,18.80
2021,06,25,01,07,18.80
2021,06,25,01,08,18.80
2021,06,25,01,09,18.80
2021,06,25,01,10,18.70
2021,06,25,01,11,18.70
2021,06,25,01,12,18.80
2021,06,25,01,13,18.70
2021,06,25,01,14,18.70
2021,06,25,01,15,18.70
2021,06,25,01,16,18.70
2021,06,25,01,17,18.70
2021,06,25,01,18,18.70
2021,06,25,01,19,18.70
2021,06,25,01,20,18.70
2021,06,25,01,21,18.70
2021,06,25,01,22,18.60
2021,06,25,01,23,18.70
2021,06,25,01,24,18.60
2021,06,25,01,25,18.60
2021,06,25,01,26,18.60
2021,06,25,01,27,18.60
2021,06,25,01,28,18.60
2021,06,25,01,29,18.60
2021,06,25,01,30,18.60
2021,06,25,01,31,18.60
2021,06,25,01,32,18.60
2021,06,25,01,33,18.60
2021,06,25,01,34,18.50
2021,06,25,01,35,18.50
2021,06,25,01,36,18.50
2021,06,25,01,37,18.50
2021,06,25,01,38,18.50
2021,06,25,01,39,18.50
2021,06,25,01,40,18.50
2021,06,25,01,41,18.50
2021,06,25,01,42,18.50
2021,06,25,01,43,18.50
2021,06,25,01,44,18.50
2021,06,25,01,45,18.50
2021,06,25,01,46,18.50
2021,06,25,01,47,18.50
2021,06,25,01,48,18.50
2021,06,25,01,49,18.40
2021,06,25,01,50,18.40
2021,06,25,01,51,18.40
2021,06,25,01,52,18.40
2021,06,25,01,53,18.40
2021,06,25,01,54,18.40
2021,06,25,01,55,18.40
2021,06,25,01,56,18.40
2021,06,25,01,57,18.40
2021,06,25,01,58,18.30
2021,06,25,01,59,18.30
2021,06,25,02,00,18.30
2021,06,25,02,01,18.30
2021,06,25,02,02,18.30
2021,06,25,02,03,18.30
2021,06,25,02,04,18.30
2021,06,25,02,05,18.30
2021,06,25,02,06,18.30
2021,06,25,02,07,18.20
2021,06,25,02,08,18.20
2021,06,25,02,09,18.20
2021,06,25,02,10,18.20
2021,06,25,02,11,18.20
2021,06,25,02,12,18.20
2021,06,25,02,13,18.20
2021,06,25,02,14,18.20
2021,06,25,02,15,18.20
2021,06,25,02,16,18.20
2021,06,25,02,17,18.20
2021,06,25,02,18,18.20
2021,06,25,02,19,18.20
2021,06,25,02,20,18.20
2021,06,25,02,21,18.20
2021,06,25,02,22,18.20
2021,06,25,02,23,18.20
2021,06,25,02,24,18.10
2021,06,25,02,25,18.10
2021,06,25,02,26,18.10
2021,06,25,02,27,18.10
2021,06,25,02,28,18.10
2021,06,25,02,29,18.10
2021,06,25,02,30,18.10
2021,06,25,02,31,18.10
2021,06,25,02,32,18.10
2021,06,25,02,33,18.10
2021,06,25,02,34,18.10
2021,06,25,02,35,18.00
2021,06,25,02,36,18.00
2021,06,25,02,37,18.00
2021,06,25,02,38,18.00
2021,06,25,02,39,18.00
2021,06,25,02,40,18.00
2021,06,25,02,41,18.00
2021,06,25,02,42,18.00
2021,06,25,02,43,18.00
2021,06,25,02,44,17.90
2021,06,25,02,45,17.90
2021,06,25,02,46,17.90
2021,06,25,02,47,17.90
2021,06,25,02,48,17.90
2021,06,25,02,49,17.90
2021,06,25,02,50,17.90
2021,06,25,02,51,17.80
2021,06,25,02,52,17.80
2021,06,25,02,53,17.80
2021,06,25,02,54,17.80
2021,06,25,02,55,17.80
2021,06,25,02,56,17.80
2021,06,25,02,57,17.80
2021,06,25,02,58,17.80
2021,06,25,02,59,17.80
2021,06,25,03,00,17.80
2021,06,25,03,01,17.80
2021,06,25,03,02,17.80
2021,06,25,03,03,17.80
2021,06,25,03,04,17.80
2021,06,25,03,05,17.80
2021,06,25,03,06,17.80
2021,06,25,03,07,17.80
2021,06,25,03,08,17.70
2021,06,25,03,09,17.70
2021,06,25,03,10,17.70
2021,06,25,03,11,17.70
2021,06,25,03,12,17.70
2021,06,25,03,13,17.70
2021,06,25,03,14,17.70
2021,06,25,03,15,17.70
2021,06,25,03,16,17.70
2021,06,25,03,17,17.70
2021,06,25,03,18,17.70
2021,06,25,03,19,17.70
2021,06,25,03,20,17.60
2021,06,25,03,21,17.60
2021,06,25,03,22,17.60
2021,06,25,03,23,17.60
2021,06,25,03,24,17.60
2021,06,25,03,25,17.60
2021,06,25,03,26,17.50
2021,06,25,03,27,17.50
2021,06,25,03,28,17.50
2021,06,25,03,29,17.50
2021,06,25,03,30,17.50
2021,06,25,03,31,17.40
2021,06,25,03,32,17.40
2021,06,25,03,33,17.40
2021,06,25,03,34,17.40
2021,06,25,03,35,17.40
2021,06,25,03,36,17.30
2021,06,25,03,37,17.30
2021,06,25,03,38,17.30
2021,06,25,03,39,17.30
2021,06,25,03,40,17.30
2021,06,25,03,41,17.30
2021,06,25,03,42,17.30
2021,06,25,03,43,17.30
2021,06,25,03,44,17.30
2021,06,25,03,45,17.30
2021,06,25,03,46,17.30
2021,06,25,03,47,17.30
2021,06,25,03,48,17.30
2021,06,25,03,49,17.30
2021,06,25,03,50,17.30
2021,06,25,03,51,17.30
2021,06,25,03,52,17.30
2021,06,25,03,53,17.30
2021,06,25,03,54,17.30
2021,06,25,03,55,17.30
2021,06,25,03,56,17.30
2021,06,25,03,57,17.30
2021,06,25,03,58,17.30
2021,06,25,03,59,17.30
2021,06,25,04,00,17.20
2021,06,25,04,01,17.20
2021,06,25,04,02,17.20
2021,06,25,04,03,17.20
2021,06,25,04,04,17.20
2021,06,25,04,05,17.20
2021,06,25,04,06,17.10
2021,06,25,04,07,17.10
2021,06,25,04,08,17.10
2021,06,25,04,09,17.10
2021,06,25,04,10,17.10
2021,06,25,04,11,17.10
2021,06,25,04,12,17.10
2021,06,25,04,13,17.10
2021,06,25,04,14,17.10
2021,06,25,04,15,17.10
2021,06,25,04,16,17.10
2021,06,25,04,17,17.10
2021,06,25,04,18,17.10
2021,06,25,04,19,17.10
2021,06,25,04,20,17.10
2021,06,25,04,21,17.10
2021,06,25,04,22,17.10
2021,06,25,04,23,17.20
2021,06,25,04,24,17.20
2021,06,25,04,25,17.10
2021,06,25,04,26,17.10
2021,06,25,04,27,17.10
2021,06,25,04,28,17.10
2021,06,25,04,29,17.10
2021,06,25,04,30,17.10
2021,06,25,04,31,17.10
2021,06,25,04,32,17.00
2021,06,25,04,33,17.00
2021,06,25,04,34,17.00
2021,06,25,04,35,16.90
2021,06,25,04,36,16.90
2021,06,25,04,37,16.90
2021,06,25,04,38,16.90
2021,06,25,04,39,16.90
2021,06,25,04,40,16.90
2021,06,25,04,41,16.90
2021,06,25,04,42,16.90
2021,06,25,04,43,16.80
2021,06,25,04,44,16.80
2021,06,25,04,45,16.80
2021,06,25,04,46,16.80
2021,06,25,04,47,16.80
2021,06,25,04,48,16.80
2021,06,25,04,49,16.80
2021,06,25,04,50,16.80
2021,06,25,04,51,16.80
2021,06,25,04,52,16.80
2021,06,25,04,53,16.80
2021,06,25,04,54,16.80
2021,06,25,04,55,16.80
2021,06,25,04,56,16.80
2021,06,25,04,57,16.80
2021,06,25,04,58,16.80
2021,06,25,04,59,16.80
2021,06,25,05,00,16.80
2021,06,25,05,01,16.80
2021,06,25,05,02,16.80
2021,06,25,05,03,16.80
2021,06,25,05,04,16.80
2021,06,25,05,05,16.80
2021,06,25,05,06,16.80
2021,06,25,05,07,16.80
2021,06,25,05,08,16.80
2021,06,25,05,09,16.80
2021,06,25,05,10,16.80
2021,06,25,05,11,16.90
2021,06,25,05,12,16.90
2021,06,25,05,13,16.90
2021,06,25,05,14,16.90
2021,06,25,05,15,16.90
2021,06,25,05,16,16.90
2021,06,25,05,17,16.90
2021,06,25,05,18,16.90
2021,06,25,05,19,16.90
2021,06,25,05,20,16.90
2021,06,25,05,21,16.90
2021,06,25,05,22,16.90
2021,06,25,05,23,16.80
2021,06,25,05,24,16.80
2021,06,25,05,25,16.80
2021,06,25,05,26,16.80
2021,06,25,05,27,16.80
2021,06,25,05,28,16.80
2021,06,25,05,29,16.80
2021,06,25,05,30,16.80
2021,06,25,05,31,16.80
2021,06,25,05,32,16.70
2021,06,25,05,33,16.70
2021,06,25,05,34,16.70
2021,06,25,05,35,16.70
2021,06,25,05,36,16.70
2021,06,25,05,37,16.70
2021,06,25,05,38,16.70
2021,06,25,05,39,16.70
2021,06,25,05,40,16.70
2021,06,25,05,41,16.70
2021,06,25,05,42,16.70
2021,06,25,05,43,16.70
2021,06,25,05,44,16.70
2021,06,25,05,45,16.70
2021,06,25,05,46,16.60
2021,06,25,05,47,16.60
2021,06,25,05,48,16.60
2021,06,25,05,49,16.60
2021,06,25,05,50,16.60
2021,06,25,05,51,16.60
2021,06,25,05,52,16.70
2021,06,25,05,53,16.60
2021,06,25,05,54,16.70
2021,06,25,05,55,16.70
2021,06,25,05,56,16.70
2021,06,25,05,57,16.70
2021,06,25,05,58,16.70
2021,06,25,05,59,16.70
2021,06,25,06,00,16.70
2021,06,25,06,01,16.70
2021,06,25,06,02,16.70
2021,06,25,06,03,16.70
2021,06,25,06,04,16.80
2021,06,25,06,05,16.80
2021,06,25,06,06,16.80
2021,06,25,06,07,16.80
2021,06,25,06,08,16.80
2021,06,25,06,09,16.80
2021,06,25,06,10,16.80
2021,06,25,06,11,16.80
2021,06,25,06,12,16.80
2021,06,25,06,13,16.80
2021,06,25,06,14,16.80
2021,06,25,06,15,16.80
2021,06,25,06,16,16.80
2021,06,25,06,17,16.80
2021,06,25,06,18,16.90
2021,06,25,06,19,16.90
2021,06,25,06,20,16.90
2021,06,25,06,21,16.90
2021,06,25,06,22,16.90
2021,06,25,06,23,16.90
2021,06,25,06,24,16.90
2021,06,25,06,25,16.90
2021,06,25,06,26,16.90
2021,06,25,06,27,16.90
2021,06,25,06,28,16.90
2021,06,25,06,29,16.90
2021,06,25,06,30,16.90
2021,06,25,06,31,16.90
2021,06,25,06,32,16.90
2021,06,25,06,33,16.90
2021,06,25,06,34,17.00
2021,06,25,06,35,17.10
2021,06,25,06,36,17.10
2021,06,25,06,37,17.10
2021,06,25,06,38,17.10
2021,06,25,06,39,17.20
2021,06,25,06,40,17.20
2021,06,25,06,41,17.20
2021,06,25,06,42,17.20
2021,06,25,06,43,17.20
2021,06,25,06,44,17.20
2021,06,25,06,45,17.30
2021,06,25,06,46,17.30
2021,06,25,06,47,17.30
2021,06,25,06,48,17.40
2021,06,25,06,49,17.40
2021,06,25,06,50,17.40
2021,06,25,06,51,17.50
2021,06,25,06,52,17.50
2021,06,25,06,53,17.60
2021,06,25,06,54,17.60
2021,06,25,06,55,17.60
2021,06,25,06,56,17.70
2021,06,25,06,57,17.70
2021,06,25,06,58,17.70
2021,06,25,06,59,17.80
2021,06,25,07,00,17.80
2021,06,25,07,01,17.80
2021,06,25,07,02,17.90
2021,06,25,07,03,17.90
2021,06,25,07,04,18.00
2021,06,25,07,05,18.00
2021,06,25,07,06,18.10
2021,06,25,07,07,18.10
2021,06,25,07,08,18.20
2021,06,25,07,09,18.20
2021,06,25,07,10,18.20
2021,06,25,07,11,18.20
2021,06,25,07,12,18.30
2021,06,25,07,13,18.30
2021,06,25,07,14,18.30
2021,06,25,07,15,18.30
2021,06,25,07,16,18.40
2021,06,25,07,17,18.40
2021,06,25,07,18,18.40
2021,06,25,07,19,18.40
2021,06,25,07,20,18.40
2021,06,25,07,21,18.50
2021,06,25,07,22,18.50
2021,06,25,07,23,18.50
2021,06,25,07,24,18.60
2021,06,25,07,25,18.60
2021,06,25,07,26,18.60
2021,06,25,07,27,18.60
2021,06,25,07,28,18.60
2021,06,25,07,29,18.60
2021,06,25,07,30,18.60
2021,06,25,07,31,18.60
2021,06,25,07,32,18.70
2021,06,25,07,33,18.70
2021,06,25,07,34,18.70
2021,06,25,07,35,18.80
2021,06,25,07,36,18.80
2021,06,25,07,37,18.80
2021,06,25,07,38,18.80
2021,06,25,07,39,18.90
2021,06,25,07,40,18.90
2021,06,25,07,41,18.90
2021,06,25,07,42,19.00
2021,06,25,07,43,19.00
2021,06,25,07,44,19.00
2021,06,25,07,45,19.00
2021,06,25,07,46,19.00
2021,06,25,07,47,19.10
2021,06,25,07,48,19.10
2021,06,25,07,49,19.20
2021,06,25,07,50,19.20
2021,06,25,07,51,19.30
2021,06,25,07,52,19.30
2021,06,25,07,53,19.40
2021,06,25,07,54,19.40
2021,06,25,07,55,19.50
2021,06,25,07,56,19.60
2021,06,25,07,57,19.60
2021,06,25,07,58,19.70
2021,06,25,07,59,19.70
2021,06,25,08,00,19.80
2021,06,25,08,01,19.80
2021,06,25,08,02,19.80
2021,06,25,08,03,19.80
2021,06,25,08,04,19.90
2021,06,25,08,05,19.90
2021,06,25,08,06,20.00
2021,06,25,08,07,20.10
2021,06,25,08,08,20.10
2021,06,25,08,09,20.10
2021,06,25,08,10,20.20
2021,06,25,08,11,20.30
2021,06,25,08,12,20.30
2021,06,25,08,13,20.40
2021,06,25,08,14,20.50
2021,06,25,08,15,20.60
2021,06,25,08,16,20.70
2021,06,25,08,17,20.80
2021,06,25,08,18,21.00
2021,06,25,08,19,21.20
2021,06,25,08,20,21.40
2021,06,25,08,21,21.60
2021,06,25,08,22,21.80
2021,06,25,08,23,21.90
2021,06,25,08,24,22.10
2021,06,25,08,25,22.20
2021,06,25,08,26,22.40
2021,06,25,08,27,22.50
2021,06,25,08,28,22.70
2021,06,25,08,29,22.80
2021,06,25,08,30,22.90
2021,06,25,08,31,23.00
2021,06,25,08,32,23.20
2021,06,25,08,33,23.20
2021,06,25,08,34,23.40
2021,06,25,08,35,23.50
2021,06,25,08,36,23.60
2021,06,25,08,37,23.70
2021,06,25,08,38,23.80
2021,06,25,08,39,23.80
2021,06,25,08,40,23.90
2021,06,25,08,41,24.10
2021,06,25,08,42,24.20
2021,06,25,08,43,24.20
2021,06,25,08,44,24.20
2021,06,25,08,45,24.30
2021,06,25,08,46,24.30
2021,06,25,08,47,24.30
2021,06,25,08,48,24.40
2021,06,25,08,49,24.40
2021,06,25,08,50,24.50
2021,06,25,08,51,24.60
2021,06,25,08,52,24.70
2021,06,25,08,53,24.70
2021,06,25,08,54,24.80
2021,06,25,08,55,24.80
2021,06,25,08,56,24.90
2021,06,25,08,57,24.90
2021,06,25,08,58,24.90
2021,06,25,08,59,24.90
2021,06,25,09,00,24.90
2021,06,25,09,01,24.90
2021,06,25,09,02,24.90
2021,06,25,09,03,24.90
2021,06,25,09,04,25.00
2021,06,25,09,05,25.10
2021,06,25,09,06,25.10
2021,06,25,09,07,25.20
2021,06,25,09,08,25.30
2021,06,25,09,09,25.30
2021,06,25,09,10,25.30
2021,06,25,09,11,25.30
2021,06,25,09,12,25.40
2021,06,25,09,13,25.50
2021,06,25,09,14,25.60
2021,06,25,09,15,25.70
2021,06,25,09,16,25.80
2021,06,25,09,17,25.90
2021,06,25,09,18,25.90
2021,06,25,09,19,25.90
2021,06,25,09,20,25.90
2021,06,25,09,21,25.80
2021,06,25,09,22,25.80
2021,06,25,09,23,25.80
2021,06,25,09,24,25.70
2021,06,25,09,25,25.60
2021,06,25,09,26,25.60
2021,06,25,09,27,25.70
2021,06,25,09,28,25.80
2021,06,25,09,29,26.00
2021,06,25,09,30,26.10
2021,06,25,09,31,26.20
2021,06,25,09,32,26.30
2021,06,25,09,33,26.40
2021,06,25,09,34,26.40
2021,06,25,09,35,26.50
2021,06,25,09,36,26.50
2021,06,25,09,37,26.60
2021,06,25,09,38,26.70
2021,06,25,09,39,26.80
2021,06,25,09,40,26.80
2021,06,25,09,41,26.90
2021,06,25,09,42,27.00
2021,06,25,09,43,27.00
2021,06,25,09,44,27.00
2021,06,25,09,45,27.10
2021,06,25,09,46,27.20
2021,06,25,09,47,27.30
2021,06,25,09,48,27.30
2021,06,25,09,49,27.10
2021,06,25,09,50,27.00
2021,06,25,09,51,27.00
2021,06,25,09,52,26.90
2021,06,25,09,53,26.90
2021,06,25,09,54,27.00
2021,06,25,09,55,27.00
2021,06,25,09,56,27.00
2021,06,25,09,57,27.10
2021,06,25,09,58,27.20
2021,06,25,09,59,27.20
2021,06,25,10,00,27.20
2021,06,25,10,01,27.30
2021,06,25,10,02,27.30
2021,06,25,10,03,27.30
2021,06,25,10,04,27.30
2021,06,25,10,05,27.20
2021,06,25,10,06,27.20
2021,06,25,10,07,27.20
2021,06,25,10,08,27.20
2021,06,25,10,09,27.30
2021,06,25,10,10,27.40
2021,06,25,10,11,27.40
2021,06,25,10,12,27.50
2021,06,25,10,13,27.60
2021,06,25,10,14,27.70
2021,06,25,10,15,27.60
2021,06,25,10,16,27.50
2021,06,25,10,17,27.40
2021,06,25,10,18,27.30
2021,06,25,10,19,27.30
2021,06,25,10,20,27.40
2021,06,25,10,21,27.50
2021,06,25,10,22,27.60
2021,06,25,10,23,27.70
2021,06,25,10,24,27.80
2021,06,25,10,25,27.90
2021,06,25,10,26,27.90
2021,06,25,10,27,27.90
2021,06,25,10,28,27.90
2021,06,25,10,29,27.90
2021,06,25,10,30,27.80
2021,06,25,10,31,27.90
2021,06,25,10,32,27.90
2021,06,25,10,33,28.00
2021,06,25,10,34,28.10
2021,06,25,10,35,28.20
2021,06,25,10,36,28.20
2021,06,25,10,37,28.30
2021,06,25,10,38,28.20
2021,06,25,10,39,28.30
2021,06,25,10,40,28.30
2021,06,25,10,41,28.20
2021,06,25,10,42,28.20
2021,06,25,10,43,28.30
2021,06,25,10,44,28.20
2021,06,25,10,45,28.10
2021,06,25,10,46,28.10
2021,06,25,10,47,28.10
2021,06,25,10,48,28.20
2021,06,25,10,49,28.30
2021,06,25,10,50,28.40
2021,06,25,10,51,28.40
2021,06,25,10,52,28.40
2021,06,25,10,53,28.60
2021,06,25,10,54,28.60
2021,06,25,10,55,28.70
2021,06,25,10,56,28.80
2021,06,25,10,57,28.80
2021,06,25,10,58,28.80
2021,06,25,10,59,28.90
2021,06,25,11,00,28.80
2021,06,25,11,01,28.80
2021,06,25,11,02,28.80
2021,06,25,11,03,28.90
2021,06,25,11,04,28.90
2021,06,25,11,05,28.80
2021,06,25,11,06,28.80
2021,06,25,11,07,28.90
2021,06,25,11,08,28.90
2021,06,25,11,09,28.80
2021,06,25,11,10,28.80
2021,06,25,11,11,28.90
2021,06,25,11,12,29.00
2021,06,25,11,13,29.10
2021,06,25,11,14,29.20
2021,06,25,11,15,29.40
2021,06,25,11,16,29.50
2021,06,25,11,17,29.60
2021,06,25,11,18,29.70
2021,06,25,11,19,29.70
2021,06,25,11,20,29.70
2021,06,25,11,21,29.70
2021,06,25,11,22,29.70
2021,06,25,11,23,29.70
2021,06,25,11,24,29.60
2021,06,25,11,25,29.40
2021,06,25,11,26,29.20
2021,06,25,11,27,29.00
2021,06,25,11,28,28.90
2021,06,25,11,29,28.80
2021,06,25,11,30,28.80
2021,06,25,11,31,28.80
2021,06,25,11,32,28.80
2021,06,25,11,33,28.90
2021,06,25,11,34,29.00
2021,06,25,11,35,29.10
2021,06,25,11,36,29.20
2021,06,25,11,37,29.30
2021,06,25,11,38,29.40
2021,06,25,11,39,29.40
2021,06,25,11,40,29.50
2021,06,25,11,41,29.60
2021,06,25,11,42,29.60
2021,06,25,11,43,29.60
2021,06,25,11,44,29.60
2021,06,25,11,45,29.60
2021,06,25,11,46,29.50
2021,06,25,11,47,29.40
2021,06,25,11,48,29.30
2021,06,25,11,49,29.20
2021,06,25,11,50,29.20
2021,06,25,11,51,29.20
2021,06,25,11,52,29.20
2021,06,25,11,53,29.30
2021,06,25,11,54,29.40
2021,06,25,11,55,29.50
2021,06,25,11,56,29.60
2021,06,25,11,57,29.60
2021,06,25,11,58,29.70
2021,06,25,11,59,29.70
2021,06,25,12,00,29.70
2021,06,25,12,01,29.80
2021,06,25,12,02,29.80
2021,06,25,12,03,30.00
2021,06,25,12,04,30.10
2021,06,25,12,05,30.10
2021,06,25,12,06,30.20
2021,06,25,12,07,30.20
2021,06,25,12,08,30.30
2021,06,25,12,09,30.30
2021,06,25,12,10,30.30
2021,06,25,12,11,30.30
2021,06,25,12,12,30.30
2021,06,25,12,13,30.30
2021,06,25,12,14,30.50
2021,06,25,12,15,30.80
2021,06,25,12,16,30.90
2021,06,25,12,17,31.00
2021,06,25,12,18,31.00
2021,06,25,12,19,30.90
2021,06,25,12,20,30.80
2021,06,25,12,21,30.80
2021,06,25,12,22,30.70
2021,06,25,12,23,30.80
2021,06,25,12,24,30.90
2021,06,25,12,25,31.00
2021,06,25,12,26,31.10
2021,06,25,12,27,31.20
2021,06,25,12,28,31.20
2021,06,25,12,29,31.10
2021,06,25,12,30,31.00
2021,06,25,12,31,31.10
2021,06,25,12,32,31.10
2021,06,25,12,33,31.10
2021,06,25,12,34,31.10
2021,06,25,12,35,31.10
2021,06,25,12,36,31.20
2021,06,25,12,37,31.20
2021,06,25,12,38,31.20
2021,06,25,12,39,31.20
2021,06,25,12,40,31.10
2021,06,25,12,41,31.00
2021,06,25,12,42,31.00
2021,06,25,12,43,31.10
2021,06,25,12,44,31.10
2021,06,25,12,45,31.10
2021,06,25,12,46,31.10
2021,06,25,12,47,31.20
2021,06,25,12,48,31.30
2021,06,25,12,49,31.30
2021,06,25,12,50,31.20
2021,06,25,12,51,30.90
2021,06,25,12,52,30.80
2021,06,25,12,53,30.80
2021,06,25,12,54,30.80
2021,06,25,12,55,30.90
2021,06,25,12,56,31.00
2021,06,25,12,57,31.10
2021,06,25,12,58,31.20
2021,06,25,12,59,31.10
2021,06,25,13,00,31.10
2021,06,25,13,01,31.10
2021,06,25,13,02,31.20
2021,06,25,13,03,31.20
2021,06,25,13,04,31.10
2021,06,25,13,05,31.10
2021,06,25,13,06,31.20
2021,06,25,13,07,31.20
2021,06,25,13,08,31.20
2021,06,25,13,09,31.20
2021,06,25,13,10,31.20
2021,06,25,13,11,31.20
2021,06,25,13,12,31.30
2021,06,25,13,13,31.40
2021,06,25,13,14,31.50
2021,06,25,13,15,31.70
2021,06,25,13,16,31.80
2021,06,25,13,17,32.00
2021,06,25,13,18,32.10
2021,06,25,13,19,32.30
2021,06,25,13,20,32.40
2021,06,25,13,21,32.40
2021,06,25,13,22,32.40
2021,06,25,13,23,32.30
2021,06,25,13,24,32.30
2021,06,25,13,25,32.30
2021,06,25,13,26,32.10
2021,06,25,13,27,31.90
2021,06,25,13,28,31.90
2021,06,25,13,29,31.90
2021,06,25,13,30,31.90
2021,06,25,13,31,31.90
2021,06,25,13,32,32.00
2021,06,25,13,33,32.10
2021,06,25,13,34,32.10
2021,06,25,13,35,32.10
2021,06,25,13,36,32.00
2021,06,25,13,37,31.90
2021,06,25,13,38,31.90
2021,06,25,13,39,32.00
2021,06,25,13,40,32.10
2021,06,25,13,41,32.10
2021,06,25,13,42,32.10
2021,06,25,13,43,32.10
2021,06,25,13,44,32.10
2021,06,25,13,45,32.20
2021,06,25,13,46,32.30
2021,06,25,13,47,32.30
2021,06,25,13,48,32.30
2021,06,25,13,49,32.20
2021,06,25,13,50,32.10
2021,06,25,13,51,32.10
2021,06,25,13,52,32.10
2021,06,25,13,53,32.20
2021,06,25,13,54,32.30
2021,06,25,13,55,32.20
2021,06,25,13,56,32.20
2021,06,25,13,57,32.20
2021,06,25,13,58,32.20
2021,06,25,13,59,32.30
2021,06,25,14,00,32.30
2021,06,25,14,01,32.30
2021,06,25,14,02,32.30
2021,06,25,14,03,32.30
2021,06,25,14,04,32.30
2021,06,25,14,05,32.30
2021,06,25,14,06,32.30
2021,06,25,14,07,32.30
2021,06,25,14,08,32.40
2021,06,25,14,09,32.40
2021,06,25,14,10,32.50
2021,06,25,14,11,32.50
2021,06,25,14,12,32.40
2021,06,25,14,13,32.30
2021,06,25,14,14,32.30
2021,06,25,14,15,32.20
2021,06,25,14,16,32.20
2021,06,25,14,17,32.20
2021,06,25,14,18,32.30
2021,06,25,14,19,32.40
2021,06,25,14,20,32.50
2021,06,25,14,21,32.60
2021,06,25,14,22,32.70
2021,06,25,14,23,32.50
2021,06,25,14,24,32.40
2021,06,25,14,25,32.30
2021,06,25,14,26,32.20
2021,06,25,14,27,32.30
2021,06,25,14,28,32.40
2021,06,25,14,29,32.50
2021,06,25,14,30,32.70
2021,06,25,14,31,32.80
2021,06,25,14,32,32.90
2021,06,25,14,33,32.90
2021,06,25,14,34,32.90
2021,06,25,14,35,32.90
2021,06,25,14,36,32.80
2021,06,25,14,37,32.70
2021,06,25,14,38,32.70
2021,06,25,14,39,32.70
2021,06,25,14,40,32.70
2021,06,25,14,41,32.80
2021,06,25,14,42,32.90
2021,06,25,14,43,32.90
2021,06,25,14,44,33.00
2021,06,25,14,45,33.10
2021,06,25,14,46,33.20
2021,06,25,14,47,33.10
2021,06,25,14,48,33.10
2021,06,25,14,49,33.10
2021,06,25,14,50,33.10
2021,06,25,14,51,33.10
2021,06,25,14,52,33.10
2021,06,25,14,53,33.10
2021,06,25,14,54,33.10
2021,06,25,14,55,33.20
2021,06,25,14,56,33.40
2021,06,25,14,57,33.50
2021,06,25,14,58,33.50
2021,06,25,14,59,33.60
2021,06,25,15,00,33.60
2021,06,25,15,01,33.60
2021,06,25,15,02,33.60
2021,06,25,15,03,33.60
2021,06,25,15,04,33.70
2021,06,25,15,05,33.60
2021,06,25,15,06,33.50
2021,06,25,15,07,33.30
2021,06,25,15,08,33.30
2021,06,25,15,09,33.40
2021,06,25,15,10,33.50
2021,06,25,15,11,33.40
2021,06,25,15,12,33.40
2021,06,25,15,13,33.40
2021,06,25,15,14,33.30
2021,06,25,15,15,33.30
2021,06,25,15,16,33.30
2021,06,25,15,17,33.30
2021,06,25,15,18,33.30
2021,06,25,15,19,33.30
2021,06,25,15,20,33.30
2021,06,25,15,21,33.40
2021,06,25,15,22,33.50
2021,06,25,15,23,33.60
2021,06,25,15,24,33.70
2021,06,25,15,25,33.60
2021,06,25,15,26,33.60
2021,06,25,15,27,33.60
2021,06,25,15,28,33.50
2021,06,25,15,29,33.40
2021,06,25,15,30,33.40
2021,06,25,15,31,33.30
2021,06,25,15,32,33.20
2021,06,25,15,33,33.10
2021,06,25,15,34,33.10
2021,06,25,15,35,33.10
2021,06,25,15,36,33.20
2021,06,25,15,37,33.20
2021,06,25,15,38,33.20
2021,06,25,15,39,33.20
2021,06,25,15,40,33.20
2021,06,25,15,41,33.20
2021,06,25,15,42,33.20
2021,06,25,15,43,33.20
2021,06,25,15,44,33.30
2021,06,25,15,45,33.60
2021,06,25,15,46,33.70
2021,06,25,15,47,33.80
2021,06,25,15,48,33.80
2021,06,25,15,49,33.80
2021,06,25,15,50,33.80
2021,06,25,15,51,33.90
2021,06,25,15,52,33.90
2021,06,25,15,53,33.80
2021,06,25,15,54,33.80
2021,06,25,15,55,33.80
2021,06,25,15,56,33.80
2021,06,25,15,57,33.70
2021,06,25,15,58,33.80
2021,06,25,15,59,33.80
2021,06,25,16,00,33.80
2021,06,25,16,01,33.80
2021,06,25,16,02,33.80
2021,06,25,16,03,33.80
2021,06,25,16,04,33.80
2021,06,25,16,05,33.80
2021,06,25,16,06,33.90
2021,06,25,16,07,34.00
2021,06,25,16,08,34.00
2021,06,25,16,09,34.10
2021,06,25,16,10,34.10
2021,06,25,16,11,34.10
2021,06,25,16,12,33.90
2021,06,25,16,13,33.80
2021,06,25,16,14,33.80
2021,06,25,16,15,33.80
2021,06,25,16,16,33.80
2021,06,25,16,17,33.80
2021,06,25,16,18,33.90
2021,06,25,16,19,34.00
2021,06,25,16,20,34.10
2021,06,25,16,21,34.10
2021,06,25,16,22,34.20
2021,06,25,16,23,34.20
2021,06,25,16,24,34.20
2021,06,25,16,25,34.10
2021,06,25,16,26,34.00
2021,06,25,16,27,33.90
2021,06,25,16,28,33.90
2021,06,25,16,29,33.90
2021,06,25,16,30,34.00
2021,06,25,16,31,34.00
2021,06,25,16,32,34.00
2021,06,25,16,33,34.10
2021,06,25,16,34,34.20
2021,06,25,16,35,34.20
2021,06,25,16,36,34.40
2021,06,25,16,37,34.40
2021,06,25,16,38,34.30
2021,06,25,16,39,34.20
2021,06,25,16,40,34.10
2021,06,25,16,41,34.10
2021,06,25,16,42,34.20
2021,06,25,16,43,34.10
2021,06,25,16,44,34.10
2021,06,25,16,45,34.10
2021,06,25,16,46,34.10
2021,06,25,16,47,34.00
2021,06,25,16,48,34.10
2021,06,25,16,49,34.10
2021,06,25,16,50,34.20
2021,06,25,16,51,34.30
2021,06,25,16,52,34.30
2021,06,25,16,53,34.40
2021,06,25,16,54,34.50
2021,06,25,16,55,34.60
2021,06,25,16,56,34.60
2021,06,25,16,57,34.60
2021,06,25,16,58,34.60
2021,06,25,16,59,34.40
2021,06,25,17,00,34.30
2021,06,25,17,01,34.20
2021,06,25,17,02,34.20
2021,06,25,17,03,34.20
2021,06,25,17,04,34.20
2021,06,25,17,05,34.20
2021,06,25,17,06,34.20
2021,06,25,17,07,34.10
2021,06,25,17,08,34.10
2021,06,25,17,09,34.20
2021,06,25,17,10,34.30
2021,06,25,17,11,34.40
2021,06,25,17,12,34.40
2021,06,25,17,13,34.40
2021,06,25,17,14,34.40
2021,06,25,17,15,34.50
2021,06,25,17,16,34.70
2021,06,25,17,17,34.70
2021,06,25,17,18,34.90
2021,06,25,17,19,35.00